| time (UTC) | temp F | wind direction | speed knots | gust knots | rain 1hr in | rain 24hr in | rain mn in | humidity % | barometer mb |
| 20260902233143 | 70 | 139 | 4.3 | 6.1 | 0.00 | 0.42 | 0.42 | 95 | 1016.9 |
| 20260902232642 | 70 | 167 | 4.3 | 6.1 | 0.00 | 0.42 | 0.42 | 95 | 1017.0 |
| 20260902232141 | 70 | 149 | 1.7 | 2.6 | 0.00 | 0.42 | 0.42 | 95 | 1017.1 |
| 20260902231636 | 70 | 131 | 1.7 | 2.6 | 0.00 | 0.42 | 0.42 | 95 | 1017.3 |
| 20260902231131 | 70 | 151 | 2.6 | 2.6 | 0.00 | 0.42 | 0.42 | 95 | 1017.1 |
| 20260902230626 | 70 | 130 | 0.9 | 1.7 | 0.00 | 0.42 | 0.42 | 95 | 1017.4 |
| 20260902230125 | 70 | 140 | 2.6 | 4.3 | 0.00 | 0.42 | 0.42 | 95 | 1017.0 |
| 20260902225620 | 70 | 162 | 2.6 | 4.3 | 0.00 | 0.42 | 0.42 | 95 | 1016.7 |
| 20260902225119 | 70 | 118 | 4.3 | 6.1 | 0.00 | 0.42 | 0.42 | 95 | 1016.7 |
| 20260902224618 | 70 | 114 | 2.6 | 2.6 | 0.00 | 0.42 | 0.42 | 95 | 1016.8 |
| 20260902224114 | 71 | 115 | 3.5 | 7.0 | 0.00 | 0.42 | 0.42 | 95 | 1016.9 |
| 20260902223611 | 71 | 109 | 9.6 | 11.3 | 0.00 | 0.42 | 0.42 | 95 | 1016.7 |
| 20260902223109 | 71 | 169 | 4.3 | 7.0 | 0.00 | 0.42 | 0.42 | 95 | 1016.9 |
| 20260902222608 | 71 | 128 | 5.2 | 7.8 | 0.00 | 0.42 | 0.42 | 95 | 1016.8 |
| 20260902222107 | 71 | 121 | 3.5 | 5.2 | 0.00 | 0.42 | 0.42 | 95 | 1016.7 |
| 20260902221601 | 71 | 121 | 4.3 | 7.0 | 0.00 | 0.42 | 0.42 | 95 | 1017.0 |
| 20260902221056 | 71 | 131 | 4.3 | 6.1 | 0.00 | 0.42 | 0.42 | 95 | 1017.0 |
| 20260902220552 | 71 | 64 | 5.2 | 7.0 | 0.00 | 0.42 | 0.42 | 95 | 1017.4 |
| 20260902220046 | 71 | 128 | 4.3 | 5.2 | 0.00 | 0.42 | 0.42 | 95 | 1017.2 |
| 20260902215543 | 71 | 108 | 2.6 | 5.2 | 0.00 | 0.42 | 0.42 | 95 | 1017.5 |
| 20260902215037 | 71 | 126 | 3.5 | 5.2 | 0.00 | 0.42 | 0.42 | 95 | 1017.6 |
| 20260902214532 | 71 | 115 | 3.5 | 5.2 | 0.00 | 0.42 | 0.42 | 95 | 1017.4 |
| 20260902214031 | 71 | 116 | 5.2 | 6.1 | 0.00 | 0.42 | 0.42 | 95 | 1017.5 |
| 20260902213527 | 71 | 136 | 3.5 | 4.3 | 0.00 | 0.42 | 0.42 | 95 | 1017.6 |
| 20260902213026 | 71 | 114 | 3.5 | 5.2 | 0.00 | 0.42 | 0.42 | 95 | 1017.7 |
| 20260902212522 | 71 | 115 | 3.5 | 5.2 | 0.00 | 0.42 | 0.42 | 95 | 1017.6 |
| 20260902212018 | 71 | 109 | 3.5 | 4.3 | 0.00 | 0.42 | 0.42 | 95 | 1017.4 |
| 20260902211514 | 71 | 129 | 2.6 | 2.6 | 0.00 | 0.42 | 0.42 | 95 | 1017.6 |
| 20260902211008 | 71 | 181 | 1.7 | 1.7 | 0.00 | 0.42 | 0.42 | 95 | 1017.7 |
| 20260902210503 | 71 | 100 | 3.5 | 4.3 | 0.00 | 0.42 | 0.42 | 95 | 1017.7 |
| 20260902210001 | 71 | 110 | 2.6 | 2.6 | 0.00 | 0.42 | 0.42 | 95 | 1017.6 |
| 20260902205456 | 71 | 167 | 0.9 | 0.9 | 0.00 | 0.42 | 0.42 | 95 | 1017.6 |
| 20260902204952 | 71 | 121 | 2.6 | 2.6 | 0.00 | 0.42 | 0.42 | 95 | 1017.5 |
| 20260902204451 | 71 | 115 | 1.7 | 2.6 | 0.00 | 0.42 | 0.42 | 95 | 1017.7 |
| 20260902203947 | 71 | 118 | 2.6 | 2.6 | 0.00 | 0.42 | 0.42 | 95 | 1017.5 |
| 20260902203443 | 71 | 119 | 5.2 | 6.1 | 0.00 | 0.42 | 0.42 | 95 | 1017.4 |
| 20260902202941 | 71 | 142 | 5.2 | 7.0 | 0.00 | 0.42 | 0.42 | 95 | 1017.5 |
| 20260902202437 | 71 | 144 | 2.6 | 2.6 | 0.00 | 0.42 | 0.42 | 95 | 1017.3 |
| 20260902201934 | 71 | 121 | 6.1 | 7.0 | 0.00 | 0.42 | 0.42 | 95 | 1017.4 |
| 20260902201429 | 71 | 122 | 6.1 | 7.0 | 0.00 | 0.42 | 0.42 | 95 | 1017.8 |
| 20260902200929 | 71 | 134 | 2.6 | 4.3 | 0.00 | 0.42 | 0.42 | 95 | 1017.7 |
| 20260902200424 | 71 | 113 | 1.7 | 2.6 | 0.00 | 0.42 | 0.42 | 95 | 1017.8 |
| 20260902195919 | 71 | 124 | 2.6 | 4.3 | 0.00 | 0.42 | 0.42 | 95 | 1017.8 |
| 20260902195414 | 71 | 169 | 6.1 | 7.0 | 0.00 | 0.42 | 0.42 | 95 | 1017.8 |
| 20260902194909 | 71 | 101 | 4.3 | 6.1 | 0.00 | 0.42 | 0.42 | 95 | 1017.7 |
| 20260902194408 | 71 | 131 | 2.6 | 2.6 | 0.00 | 0.42 | 0.42 | 95 | 1018.1 |
| 20260902193903 | 71 | 132 | 2.6 | 2.6 | 0.00 | 0.42 | 0.42 | 95 | 1018.3 |
| 20260902193359 | 71 | 101 | 2.6 | 4.3 | 0.00 | 0.42 | 0.42 | 95 | 1018.2 |
| 20260902192858 | 71 | 127 | 3.5 | 5.2 | 0.00 | 0.42 | 0.42 | 95 | 1018.4 |
| 20260902192357 | 71 | 124 | 2.6 | 2.6 | 0.00 | 0.42 | 0.42 | 95 | 1018.2 |
| 20260902191851 | 71 | 167 | 3.5 | 4.3 | 0.00 | 0.42 | 0.42 | 95 | 1018.2 |
| 20260902191346 | 70 | 114 | 3.5 | 6.1 | 0.00 | 0.42 | 0.42 | 95 | 1018.4 |
| 20260902190836 | 70 | 130 | 2.6 | 2.6 | 0.00 | 0.42 | 0.42 | 95 | 1018.5 |
| 20260902190335 | 70 | 130 | 3.5 | 4.3 | 0.00 | 0.42 | 0.42 | 95 | 1018.4 |
| 20260902185832 | 70 | 111 | 4.3 | 5.2 | 0.00 | 0.42 | 0.42 | 95 | 1018.5 |
| 20260902185327 | 70 | 151 | 1.7 | 1.7 | 0.00 | 0.42 | 0.42 | 95 | 1018.3 |
| 20260902184823 | 70 | 120 | 5.2 | 7.0 | 0.00 | 0.42 | 0.42 | 95 | 1018.4 |
| 20260902184318 | 70 | 167 | 2.6 | 4.3 | 0.00 | 0.42 | 0.42 | 95 | 1018.6 |
| 20260902183813 | 70 | 92 | 5.2 | 7.0 | 0.00 | 0.42 | 0.42 | 95 | 1018.4 |
| 20260902183309 | 70 | 123 | 5.2 | 6.1 | 0.00 | 0.42 | 0.42 | 95 | 1018.4 |
| 20260902182805 | 70 | 152 | 4.3 | 7.0 | 0.00 | 0.42 | 0.42 | 95 | 1018.3 |
| 20260902182305 | 71 | 103 | 4.3 | 7.0 | 0.00 | 0.42 | 0.42 | 95 | 1018.7 |
| 20260902181757 | 71 | 186 | 3.5 | 4.3 | 0.00 | 0.42 | 0.42 | 95 | 1018.4 |
| 20260902181252 | 71 | 114 | 2.6 | 5.2 | 0.00 | 0.42 | 0.42 | 95 | 1018.4 |
| 20260902180747 | 71 | 109 | 7.0 | 7.8 | 0.00 | 0.42 | 0.42 | 95 | 1018.7 |
| 20260902180242 | 71 | 165 | 3.5 | 4.3 | 0.00 | 0.42 | 0.42 | 95 | 1018.9 |
| 20260902175737 | 71 | 109 | 1.7 | 2.6 | 0.00 | 0.42 | 0.42 | 95 | 1018.9 |
| 20260902175233 | 71 | 114 | 4.3 | 6.1 | 0.00 | 0.42 | 0.42 | 95 | 1018.9 |
| 20260902174729 | 70 | 101 | 3.5 | 5.2 | 0.00 | 0.42 | 0.42 | 95 | 1019.0 |
| 20260902174224 | 70 | 137 | 6.1 | 8.7 | 0.00 | 0.42 | 0.42 | 95 | 1019.1 |
| 20260902173719 | 69 | 116 | 1.7 | 2.6 | 0.00 | 0.42 | 0.42 | 95 | 1019.1 |
| 20260902173214 | 69 | 91 | 2.6 | 4.3 | 0.00 | 0.42 | 0.42 | 95 | 1019.2 |
| 20260902172709 | 69 | 119 | 4.3 | 4.3 | 0.00 | 0.42 | 0.42 | 95 | 1019.3 |
| 20260902172208 | 69 | 125 | 6.1 | 8.7 | 0.00 | 0.42 | 0.42 | 95 | 1019.4 |
| 20260902171703 | 69 | 165 | 7.8 | 11.3 | 0.00 | 0.42 | 0.42 | 95 | 1019.4 |
| 20260902171159 | 69 | 73 | 3.5 | 5.2 | 0.00 | 0.42 | 0.42 | 95 | 1019.7 |
| 20260902170655 | 69 | 125 | 4.3 | 7.8 | 0.00 | 0.42 | 0.42 | 95 | 1019.4 |
| 20260902170149 | 69 | 97 | 4.3 | 7.0 | 0.00 | 0.42 | 0.42 | 95 | 1019.6 |
| 20260902165644 | 68 | 135 | 4.3 | 6.1 | 0.00 | 0.42 | 0.42 | 95 | 1019.4 |
| 20260902165138 | 69 | 139 | 2.6 | 2.6 | 0.00 | 0.42 | 0.42 | 95 | 1019.5 |
| 20260902164634 | 68 | 125 | 5.2 | 7.0 | 0.00 | 0.42 | 0.42 | 95 | 1019.3 |
| 20260902164133 | 69 | 166 | 3.5 | 4.3 | 0.00 | 0.42 | 0.42 | 95 | 1019.5 |
| 20260902163628 | 69 | 106 | 4.3 | 5.2 | 0.00 | 0.42 | 0.42 | 95 | 1019.8 |
| 20260902163127 | 69 | 121 | 3.5 | 4.3 | 0.00 | 0.42 | 0.42 | 95 | 1019.7 |
| 20260902162626 | 69 | 116 | 6.1 | 7.8 | 0.00 | 0.42 | 0.42 | 95 | 1020.1 |
| 20260902162121 | 69 | 122 | 3.5 | 4.3 | 0.00 | 0.42 | 0.42 | 95 | 1020.2 |
| 20260902161616 | 69 | 111 | 1.7 | 1.7 | 0.00 | 0.42 | 0.42 | 95 | 1020.1 |
| 20260902161112 | 69 | 129 | 0.9 | 1.7 | 0.00 | 0.42 | 0.42 | 95 | 1019.7 |
| 20260902160609 | 69 | 120 | 0.0 | 0.9 | 0.00 | 0.42 | 0.42 | 95 | 1019.7 |
| 20260902160103 | 69 | 122 | 0.0 | 0.0 | 0.00 | 0.42 | 0.42 | 95 | 1019.2 |
| 20260902155602 | 69 | 74 | 0.9 | 1.7 | 0.00 | 0.42 | 0.42 | 95 | 1019.5 |
| 20260902155100 | 70 | 119 | 4.3 | 5.2 | 0.07 | 0.42 | 0.42 | 95 | 1019.3 |
| 20260902154556 | 69 | 109 | 7.8 | 9.6 | 0.12 | 0.42 | 0.42 | 95 | 1019.1 |
| 20260902154050 | 69 | 88 | 1.7 | 4.3 | 0.24 | 0.41 | 0.41 | 95 | 1019.3 |
| 20260902153549 | 70 | 91 | 0.0 | 0.9 | 0.19 | 0.39 | 0.39 | 95 | 1019.5 |
| 20260902153045 | 70 | 44 | 0.9 | 1.7 | 0.07 | 0.37 | 0.37 | 95 | 1019.7 |
| 20260902152541 | 70 | 96 | 0.9 | 1.7 | 0.12 | 0.36 | 0.36 | 95 | 1019.8 |
| 20260902152036 | 70 | 123 | 1.7 | 1.7 | 0.19 | 0.35 | 0.35 | 95 | 1019.6 |
| 20260902151532 | 70 | 137 | 0.0 | 0.0 | 0.24 | 0.34 | 0.34 | 95 | 1019.6 |
| 20260902151031 | 70 | 146 | 0.0 | 0.0 | 0.35 | 0.32 | 0.32 | 95 | 1019.6 |
| 20260902150527 | 70 | 302 | 1.7 | 1.7 | 0.35 | 0.30 | 0.30 | 95 | 1019.4 |
| 20260902150022 | 70 | 157 | 0.0 | 0.0 | 0.12 | 0.25 | 0.25 | 95 | 1019.0 |
| 20260902145517 | 70 | 159 | 0.0 | 0.0 | 0.12 | 0.24 | 0.24 | 95 | 1019.1 |
| 20260902145017 | 70 | 107 | 0.9 | 0.9 | 0.24 | 0.23 | 0.23 | 95 | 1018.8 |
| 20260902144513 | 70 | 88 | 0.0 | 0.9 | 0.66 | 0.22 | 0.22 | 95 | 1018.4 |
| 20260902144008 | 70 | 120 | 5.2 | 7.0 | 0.66 | 0.19 | 0.19 | 95 | 1018.6 |
| 20260902143503 | 71 | 174 | 2.6 | 5.2 | 0.24 | 0.11 | 0.11 | 95 | 1019.5 |
| 20260902142958 | 71 | 155 | 2.6 | 2.6 | 0.12 | 0.08 | 0.08 | 95 | 1018.9 |
| 20260902142454 | 71 | 169 | 0.9 | 0.9 | 0.07 | 0.07 | 0.07 | 95 | 1018.8 |
| 20260902141949 | 71 | 115 | 0.9 | 1.7 | 0.12 | 0.06 | 0.06 | 95 | 1018.8 |
| 20260902141443 | 71 | 124 | 2.6 | 2.6 | 0.12 | 0.05 | 0.05 | 95 | 1018.7 |
| 20260902140938 | 72 | 151 | 0.0 | 0.0 | 0.24 | 0.04 | 0.04 | 95 | 1018.9 |
| 20260902140433 | 72 | 145 | 1.7 | 1.7 | 0.19 | 0.03 | 0.03 | 95 | 1019.2 |
| 20260902135932 | 72 | 131 | 0.9 | 1.7 | 0.00 | 0.00 | 0.00 | 95 | 1019.2 |
| 20260902135428 | 72 | 137 | 2.6 | 2.6 | 0.00 | 0.00 | 0.00 | 95 | 1019.4 |
| 20260902134927 | 72 | 149 | 0.0 | 0.9 | 0.00 | 0.00 | 0.00 | 95 | 1019.5 |
| 20260902134423 | 72 | 95 | 2.6 | 2.6 | 0.00 | 0.00 | 0.00 | 95 | 1019.6 |
| 20260902133918 | 72 | 135 | 1.7 | 1.7 | 0.00 | 0.00 | 0.00 | 95 | 1019.5 |
| 20260902133413 | 72 | 126 | 1.7 | 2.6 | 0.00 | 0.00 | 0.00 | 95 | 1019.5 |
| 20260902132908 | 72 | 182 | 0.9 | 1.7 | 0.00 | 0.00 | 0.00 | 95 | 1019.4 |
| 20260902132403 | 72 | 162 | 3.5 | 5.2 | 0.00 | 0.00 | 0.00 | 95 | 1018.8 |
| 20260902131858 | 72 | 122 | 1.7 | 1.7 | 0.00 | 0.00 | 0.00 | 95 | 1018.6 |
| 20260902131355 | 72 | 110 | 1.7 | 2.6 | 0.00 | 0.00 | 0.00 | 95 | 1018.9 |
| 20260902130854 | 71 | 102 | 2.6 | 2.6 | 0.00 | 0.00 | 0.00 | 95 | 1019.0 |
| 20260902130350 | 71 | 130 | 0.0 | 0.0 | 0.00 | 0.00 | 0.00 | 95 | 1018.9 |
| 20260902125844 | 71 | 148 | 0.0 | 0.0 | 0.00 | 0.00 | 0.00 | 95 | 1019.0 |
| 20260902125340 | 71 | 127 | 1.7 | 1.7 | 0.00 | 0.00 | 0.00 | 95 | 1018.9 |
| 20260902124836 | 71 | 133 | 2.6 | 2.6 | 0.00 | 0.00 | 0.00 | 95 | 1018.8 |
| 20260902124332 | 71 | 135 | 0.9 | 1.7 | 0.00 | 0.00 | 0.00 | 95 | 1018.8 |
| 20260902123827 | 71 | 113 | 0.0 | 0.0 | 0.00 | 0.00 | 0.00 | 95 | 1019.0 |
| 20260902123324 | 71 | 178 | 1.7 | 2.6 | 0.00 | 0.00 | 0.00 | 95 | 1018.8 |
| 20260902122822 | 71 | 171 | 0.9 | 0.9 | 0.00 | 0.00 | 0.00 | 95 | 1018.8 |
| 20260902122318 | 71 | 153 | 0.0 | 0.0 | 0.00 | 0.00 | 0.00 | 95 | 1018.8 |
| 20260902121818 | 71 | 103 | 2.6 | 2.6 | 0.00 | 0.00 | 0.00 | 95 | 1018.7 |
| 20260902121313 | 71 | 176 | 1.7 | 1.7 | 0.00 | 0.00 | 0.00 | 95 | 1018.6 |
| 20260902120809 | 71 | 152 | 0.9 | 1.7 | 0.00 | 0.00 | 0.00 | 95 | 1018.6 |
| 20260902120305 | 71 | 127 | 0.9 | 0.9 | 0.00 | 0.00 | 0.00 | 95 | 1018.7 |
| 20260902115759 | 71 | 140 | 0.9 | 1.7 | 0.00 | 0.00 | 0.00 | 95 | 1018.5 |
| 20260902115255 | 71 | 111 | 3.5 | 5.2 | 0.00 | 0.00 | 0.00 | 95 | 1018.5 |
| 20260902114751 | 70 | 118 | 2.6 | 4.3 | 0.00 | 0.00 | 0.00 | 95 | 1018.7 |
| 20260902114248 | 70 | 113 | 3.5 | 5.2 | 0.00 | 0.00 | 0.00 | 95 | 1018.4 |
| 20260902113742 | 70 | 124 | 2.6 | 2.6 | 0.00 | 0.00 | 0.00 | 95 | 1018.4 |
| 20260902113237 | 70 | 138 | 1.7 | 1.7 | 0.00 | 0.00 | 0.00 | 95 | 1018.4 |
| 20260902112736 | 70 | 141 | 0.9 | 1.7 | 0.00 | 0.00 | 0.00 | 95 | 1018.6 |
| 20260902112234 | 70 | 119 | 1.7 | 1.7 | 0.00 | 0.00 | 0.00 | 95 | 1018.2 |
| 20260902111729 | 70 | 115 | 1.7 | 1.7 | 0.00 | 0.00 | 0.00 | 95 | 1018.5 |
| 20260902111225 | 70 | 130 | 0.0 | 0.0 | 0.00 | 0.00 | 0.00 | 95 | 1018.3 |
| 20260902110721 | 70 | 118 | 2.6 | 2.6 | 0.00 | 0.00 | 0.00 | 95 | 1018.3 |
| 20260902110217 | 70 | 142 | 0.9 | 1.7 | 0.00 | 0.00 | 0.00 | 95 | 1018.3 |
| 20260902105716 | 70 | 112 | 1.7 | 1.7 | 0.00 | 0.00 | 0.00 | 95 | 1018.1 |
| 20260902105211 | 70 | 119 | 0.9 | 1.7 | 0.00 | 0.00 | 0.00 | 95 | 1018.3 |
| 20260902104707 | 70 | 146 | 0.0 | 0.0 | 0.00 | 0.00 | 0.00 | 95 | 1018.4 |
| 20260902104203 | 70 | 129 | 0.0 | 0.0 | 0.00 | 0.00 | 0.00 | 95 | 1018.3 |
| 20260902103701 | 70 | 128 | 0.0 | 0.0 | 0.00 | 0.00 | 0.00 | 95 | 1018.5 |
| 20260902103157 | 70 | 152 | 0.0 | 0.0 | 0.00 | 0.00 | 0.00 | 95 | 1018.8 |
| 20260902102653 | 70 | 142 | 0.0 | 0.0 | 0.00 | 0.00 | 0.00 | 95 | 1018.5 |
| 20260902102150 | 70 | 137 | 0.0 | 0.0 | 0.00 | 0.00 | 0.00 | 95 | 1018.7 |
| 20260902101645 | 70 | 153 | 0.0 | 0.0 | 0.00 | 0.00 | 0.00 | 95 | 1018.7 |
| 20260902101144 | 70 | 97 | 1.7 | 1.7 | 0.00 | 0.00 | 0.00 | 95 | 1018.5 |
| 20260902100639 | 70 | 149 | 0.0 | 0.0 | 0.00 | 0.00 | 0.00 | 95 | 1018.5 |
| 20260902100134 | 70 | 167 | 0.0 | 0.0 | 0.00 | 0.00 | 0.00 | 95 | 1018.7 |
| 20260902095633 | 70 | 133 | 0.0 | 0.0 | 0.00 | 0.00 | 0.00 | 95 | 1018.6 |
| 20260902095133 | 70 | 159 | 0.0 | 0.0 | 0.00 | 0.00 | 0.00 | 95 | 1018.7 |
| 20260902094627 | 70 | 146 | 0.0 | 0.0 | 0.00 | 0.00 | 0.00 | 95 | 1018.5 |
| 20260902094124 | 69 | 161 | 0.0 | 0.0 | 0.00 | 0.00 | 0.00 | 95 | 1018.5 |
| 20260902093618 | 69 | 160 | 0.0 | 0.0 | 0.00 | 0.00 | 0.00 | 95 | 1018.7 |
| 20260902093112 | 69 | 154 | 0.0 | 0.0 | 0.00 | 0.00 | 0.00 | 95 | 1018.5 |
| 20260902092606 | 69 | 160 | 0.0 | 0.0 | 0.00 | 0.00 | 0.00 | 95 | 1018.5 |
| 20260902092101 | 69 | 151 | 0.0 | 0.0 | 0.00 | 0.00 | 0.00 | 95 | 1018.6 |
| 20260902091557 | 69 | 151 | 0.0 | 0.0 | 0.00 | 0.00 | 0.00 | 95 | 1018.7 |
| 20260902091052 | 69 | 152 | 0.0 | 0.0 | 0.00 | 0.00 | 0.00 | 95 | 1018.5 |
| 20260902090548 | 69 | 152 | 0.0 | 0.0 | 0.00 | 0.00 | 0.00 | 95 | 1018.4 |
| 20260902090047 | 69 | 157 | 0.0 | 0.0 | 0.00 | 0.00 | 0.00 | 95 | 1018.5 |
| 20260902085541 | 69 | 157 | 0.0 | 0.0 | 0.00 | 0.00 | 0.00 | 95 | 1018.7 |
| 20260902085037 | 69 | 157 | 0.0 | 0.0 | 0.00 | 0.00 | 0.00 | 95 | 1018.6 |
| 20260902084534 | 69 | 160 | 0.0 | 0.0 | 0.00 | 0.00 | 0.00 | 95 | 1018.7 |
| 20260902084029 | 69 | 155 | 0.0 | 0.0 | 0.00 | 0.00 | 0.00 | 95 | 1018.7 |
| 20260902083519 | 69 | 141 | 0.0 | 0.0 | 0.00 | 0.00 | 0.00 | 95 | 1018.7 |
| 20260902083013 | 69 | 156 | 0.0 | 0.0 | 0.00 | 0.00 | 0.00 | 95 | 1018.6 |
| 20260902082509 | 69 | 140 | 0.0 | 0.0 | 0.00 | 0.00 | 0.00 | 95 | 1018.4 |
| 20260902082005 | 69 | 152 | 0.0 | 0.0 | 0.00 | 0.00 | 0.00 | 95 | 1018.5 |
| 20260902081502 | 69 | 130 | 0.9 | 0.9 | 0.00 | 0.00 | 0.00 | 95 | 1018.5 |
| 20260902081001 | 69 | 146 | 0.0 | 0.0 | 0.00 | 0.00 | 0.00 | 95 | 1018.5 |
| 20260902080457 | 69 | 152 | 0.0 | 0.0 | 0.00 | 0.00 | 0.00 | 95 | 1018.4 |
| 20260902075956 | 69 | 119 | 0.9 | 1.7 | 0.00 | 0.00 | 0.00 | 95 | 1018.4 |
| 20260902075453 | 69 | 127 | 0.9 | 0.9 | 0.00 | 0.00 | 0.00 | 95 | 1018.3 |
| 20260902074949 | 69 | 142 | 0.0 | 0.9 | 0.00 | 0.00 | 0.00 | 95 | 1018.4 |
| 20260902074444 | 69 | 138 | 0.0 | 0.0 | 0.00 | 0.00 | 0.00 | 95 | 1018.2 |
| 20260902073938 | 69 | 144 | 0.9 | 1.7 | 0.00 | 0.00 | 0.00 | 95 | 1018.4 |
| 20260902073434 | 69 | 141 | 0.0 | 0.0 | 0.00 | 0.00 | 0.00 | 95 | 1018.4 |
| 20260902072930 | 69 | 124 | 0.0 | 0.0 | 0.00 | 0.00 | 0.00 | 95 | 1018.4 |
| 20260902072426 | 69 | 137 | 0.0 | 0.0 | 0.00 | 0.00 | 0.00 | 95 | 1018.3 |
| 20260902071922 | 69 | 144 | 0.9 | 1.7 | 0.00 | 0.00 | 0.00 | 95 | 1018.3 |
| 20260902071421 | 69 | 162 | 0.0 | 0.0 | 0.00 | 0.00 | 0.00 | 95 | 1018.2 |
| 20260902070918 | 69 | 142 | 0.0 | 0.0 | 0.00 | 0.00 | 0.00 | 95 | 1018.0 |
| 20260902070414 | 69 | 131 | 0.9 | 1.7 | 0.00 | 0.00 | 0.00 | 95 | 1018.1 |
| 20260902065912 | 69 | 133 | 0.0 | 0.0 | 0.00 | 0.00 | 0.00 | 95 | 1018.1 |
| 20260902065408 | 69 | 157 | 0.0 | 0.0 | 0.00 | 0.00 | 0.00 | 95 | 1018.4 |
| 20260902064903 | 69 | 156 | 0.0 | 0.0 | 0.00 | 0.00 | 0.00 | 95 | 1018.7 |
| 20260902064358 | 69 | 150 | 0.0 | 0.0 | 0.00 | 0.00 | 0.00 | 95 | 1018.5 |
| 20260902063854 | 69 | 150 | 0.0 | 0.0 | 0.00 | 0.00 | 0.00 | 95 | 1018.7 |
| 20260902063349 | 69 | 147 | 0.0 | 0.0 | 0.00 | 0.00 | 0.00 | 95 | 1018.3 |
| 20260902062848 | 69 | 164 | 0.0 | 0.0 | 0.00 | 0.00 | 0.00 | 95 | 1018.6 |
| 20260902062343 | 69 | 166 | 0.0 | 0.0 | 0.00 | 0.00 | 0.00 | 95 | 1018.5 |
| 20260902061842 | 69 | 166 | 0.0 | 0.0 | 0.00 | 0.00 | 0.00 | 95 | 1018.7 |
| 20260902061338 | 69 | 167 | 0.0 | 0.0 | 0.00 | 0.00 | 0.00 | 95 | 1018.5 |
| 20260902060834 | 69 | 167 | 0.0 | 0.0 | 0.00 | 0.00 | 0.00 | 95 | 1018.6 |
| 20260902060329 | 69 | 167 | 0.0 | 0.0 | 0.00 | 0.00 | 0.00 | 95 | 1018.7 |
| 20260902055825 | 69 | 167 | 0.0 | 0.0 | 0.00 | 0.00 | 0.00 | 95 | 1018.7 |
| 20260902055321 | 70 | 166 | 0.0 | 0.0 | 0.00 | 0.00 | 0.00 | 95 | 1018.5 |
| 20260902054816 | 70 | 152 | 0.0 | 0.0 | 0.00 | 0.00 | 0.00 | 95 | 1018.5 |
| 20260902054312 | 70 | 151 | 0.0 | 0.0 | 0.00 | 0.00 | 0.00 | 95 | 1018.3 |
| 20260902053807 | 70 | 140 | 0.0 | 0.0 | 0.00 | 0.00 | 0.00 | 95 | 1018.5 |
| 20260902053301 | 69 | 136 | 0.0 | 0.0 | 0.00 | 0.00 | 0.00 | 95 | 1018.5 |
| 20260902052800 | 69 | 144 | 0.0 | 0.0 | 0.00 | 0.00 | 0.00 | 95 | 1018.6 |
| 20260902052255 | 69 | 158 | 0.0 | 0.0 | 0.00 | 0.00 | 0.00 | 95 | 1018.7 |
| 20260902051749 | 69 | 129 | 0.0 | 0.0 | 0.00 | 0.00 | 0.00 | 95 | 1018.3 |
| 20260902051244 | 69 | 155 | 0.0 | 0.0 | 0.00 | 0.00 | 0.00 | 95 | 1018.4 |
| 20260902050739 | 69 | 156 | 0.0 | 0.0 | 0.00 | 0.00 | 0.00 | 95 | 1018.5 |
| 20260902050228 | 69 | 155 | 0.0 | 0.0 | 0.00 | 0.00 | 0.00 | 95 | 1018.3 |
| 20260902045728 | 69 | 154 | 0.0 | 0.0 | 0.00 | 0.00 | 0.00 | 95 | 1018.3 |
| 20260902045224 | 70 | 153 | 0.0 | 0.0 | 0.00 | 0.00 | 0.00 | 95 | 1018.2 |
| 20260902044720 | 70 | 153 | 0.0 | 0.0 | 0.00 | 0.00 | 0.00 | 95 | 1018.2 |
| 20260902044215 | 70 | 153 | 0.0 | 0.0 | 0.00 | 0.00 | 0.00 | 95 | 1018.2 |
| 20260902043710 | 70 | 151 | 0.0 | 0.0 | 0.00 | 0.00 | 0.00 | 95 | 1018.1 |
| 20260902043205 | 70 | 149 | 0.0 | 0.0 | 0.00 | 0.00 | 0.00 | 95 | 1018.3 |
| 20260902042659 | 70 | 149 | 0.0 | 0.0 | 0.00 | 0.00 | 0.00 | 95 | 1018.0 |
| 20260902042154 | 70 | 156 | 0.0 | 0.0 | 0.00 | 0.00 | 0.00 | 95 | 1017.8 |
| 20260902041654 | 70 | 156 | 0.0 | 0.0 | 0.00 | 0.00 | 0.00 | 95 | 1018.0 |
| 20260902041148 | 70 | 156 | 0.0 | 0.0 | 0.00 | 0.00 | 0.00 | 95 | 1018.0 |
| 20260902040642 | 70 | 156 | 0.0 | 0.0 | 0.00 | 0.00 | 0.00 | 95 | 1017.7 |
| 20260902040138 | 70 | 156 | 0.0 | 0.0 | 0.00 | 0.00 | 0.00 | 95 | 1017.9 |
| 20260902035636 | 70 | 181 | 0.0 | 0.0 | 0.00 | 0.43 | 0.43 | 95 | 1017.9 |
| 20260902035132 | 70 | 183 | 0.0 | 0.0 | 0.00 | 0.43 | 0.43 | 95 | 1018.0 |
| 20260902034631 | 70 | 183 | 0.0 | 0.0 | 0.00 | 0.43 | 0.43 | 95 | 1017.7 |
| 20260902034130 | 70 | 183 | 0.0 | 0.0 | 0.00 | 0.43 | 0.43 | 95 | 1017.6 |
| 20260902033630 | 70 | 182 | 0.0 | 0.0 | 0.00 | 0.43 | 0.43 | 95 | 1017.8 |
| 20260902033125 | 70 | 167 | 0.0 | 0.0 | 0.00 | 0.43 | 0.43 | 95 | 1017.7 |
| 20260902032623 | 70 | 168 | 0.0 | 0.0 | 0.00 | 0.43 | 0.43 | 95 | 1017.6 |
| 20260902032118 | 70 | 162 | 0.0 | 0.0 | 0.00 | 0.43 | 0.43 | 95 | 1017.6 |
| 20260902031613 | 70 | 138 | 0.0 | 0.0 | 0.00 | 0.43 | 0.43 | 95 | 1017.8 |
| 20260902031110 | 70 | 146 | 0.0 | 0.0 | 0.00 | 0.43 | 0.43 | 95 | 1017.8 |
| 20260902030609 | 70 | 147 | 0.0 | 0.0 | 0.00 | 0.43 | 0.43 | 95 | 1017.9 |
| 20260902030103 | 70 | 147 | 0.0 | 0.0 | 0.00 | 0.43 | 0.43 | 95 | 1017.9 |
| 20260902025558 | 70 | 147 | 0.0 | 0.0 | 0.00 | 0.43 | 0.43 | 95 | 1017.8 |
| 20260902025053 | 71 | 148 | 0.0 | 0.0 | 0.00 | 0.43 | 0.43 | 95 | 1018.0 |
| 20260902024549 | 71 | 149 | 0.0 | 0.0 | 0.00 | 0.43 | 0.43 | 95 | 1017.7 |
| 20260902024048 | 71 | 120 | 0.0 | 0.0 | 0.00 | 0.43 | 0.43 | 95 | 1017.8 |
| 20260902023544 | 71 | 154 | 0.0 | 0.0 | 0.00 | 0.43 | 0.43 | 95 | 1018.0 |
| 20260902023039 | 71 | 158 | 0.0 | 0.0 | 0.00 | 0.43 | 0.43 | 95 | 1017.8 |
| 20260902022539 | 71 | 158 | 0.0 | 0.0 | 0.00 | 0.43 | 0.43 | 95 | 1017.9 |
| 20260902022035 | 71 | 158 | 0.0 | 0.0 | 0.00 | 0.43 | 0.43 | 95 | 1017.7 |
| 20260902021530 | 71 | 152 | 0.0 | 0.0 | 0.00 | 0.43 | 0.43 | 95 | 1017.8 |
| 20260902021031 | 71 | 146 | 0.0 | 0.0 | 0.00 | 0.43 | 0.43 | 95 | 1017.7 |
| 20260902020526 | 71 | 144 | 0.0 | 0.0 | 0.00 | 0.43 | 0.43 | 95 | 1017.5 |
| 20260902020022 | 71 | 135 | 0.0 | 0.0 | 0.00 | 0.43 | 0.43 | 95 | 1017.6 |
| 20260902015518 | 71 | 136 | 0.0 | 0.0 | 0.00 | 0.43 | 0.43 | 95 | 1017.5 |
| 20260902015013 | 71 | 136 | 0.0 | 0.0 | 0.00 | 0.43 | 0.43 | 95 | 1017.8 |
| 20260902014510 | 71 | 136 | 0.0 | 0.0 | 0.00 | 0.43 | 0.43 | 95 | 1017.7 |
| 20260902014004 | 71 | 137 | 0.0 | 0.0 | 0.00 | 0.43 | 0.43 | 95 | 1017.5 |
| 20260902013458 | 71 | 136 | 0.0 | 0.0 | 0.00 | 0.43 | 0.43 | 95 | 1017.3 |
| 20260902012953 | 71 | 136 | 0.0 | 0.0 | 0.00 | 0.43 | 0.43 | 95 | 1017.3 |
| 20260902012444 | 71 | 136 | 0.0 | 0.0 | 0.00 | 0.43 | 0.43 | 95 | 1017.3 |
| 20260902011939 | 71 | 137 | 0.0 | 0.0 | 0.00 | 0.43 | 0.43 | 95 | 1017.5 |
| 20260902011435 | 72 | 137 | 0.0 | 0.0 | 0.00 | 0.43 | 0.43 | 95 | 1017.2 |
| 20260902010934 | 72 | 137 | 0.0 | 0.0 | 0.00 | 0.43 | 0.43 | 95 | 1017.1 |
| 20260902010429 | 72 | 137 | 0.0 | 0.0 | 0.00 | 0.43 | 0.43 | 95 | 1017.1 |
| 20260902005928 | 72 | 137 | 0.0 | 0.0 | 0.00 | 0.43 | 0.43 | 95 | 1017.0 |
| 20260902005427 | 72 | 137 | 0.0 | 0.0 | 0.00 | 0.43 | 0.43 | 95 | 1017.1 |
| 20260902004923 | 72 | 137 | 0.0 | 0.0 | 0.00 | 0.43 | 0.43 | 95 | 1016.8 |
| 20260902004422 | 73 | 137 | 0.0 | 0.0 | 0.00 | 0.43 | 0.43 | 95 | 1016.5 |
| 20260902003918 | 73 | 137 | 0.0 | 0.0 | 0.00 | 0.43 | 0.43 | 95 | 1016.9 |
| 20260902003413 | 73 | 137 | 0.0 | 0.0 | 0.00 | 0.43 | 0.43 | 95 | 1016.8 |
| 20260902002909 | 73 | 137 | 0.0 | 0.0 | 0.00 | 0.43 | 0.43 | 95 | 1016.4 |
| 20260902002408 | 73 | 136 | 0.0 | 0.0 | 0.00 | 0.43 | 0.43 | 95 | 1016.8 |
| 20260902001903 | 73 | 136 | 0.0 | 0.0 | 0.00 | 0.43 | 0.43 | 94 | 1016.2 |
| 20260902001358 | 73 | 144 | 0.0 | 0.0 | 0.00 | 0.43 | 0.43 | 94 | 1016.4 |
| 20260902000854 | 74 | 144 | 0.0 | 0.0 | 0.00 | 0.43 | 0.43 | 94 | 1016.2 |
| 20260902000353 | 74 | 143 | 0.0 | 0.9 | 0.00 | 0.43 | 0.43 | 94 | 1016.3 |
| 20260901235848 | 74 | 150 | 0.9 | 0.9 | 0.00 | 0.43 | 0.43 | 93 | 1016.3 |
| 20260901235343 | 74 | 154 | 0.0 | 0.0 | 0.00 | 0.43 | 0.43 | 93 | 1016.1 |
| 20260901234838 | 74 | 138 | 0.0 | 0.0 | 0.00 | 0.43 | 0.43 | 93 | 1016.1 |
| 20260901234332 | 74 | 131 | 0.9 | 0.9 | 0.00 | 0.43 | 0.43 | 92 | 1016.1 |
| 20260901233827 | 74 | 119 | 0.9 | 0.9 | 0.00 | 0.43 | 0.43 | 92 | 1016.4 |